Location: Zagreb
(45.8000°N, 16.0000°E)
Time: 13:05:59
(UTC+02:00)

Envisat - Pass Details

Date: 26 January 2022
Orbit: 764 x 765 km, 98.2° (Epoch: 22 May)

Event Time Altitude Azimuth Distance (km) Brightness Sun altitude
Rises 03:38:00 0° 28° (NNE) 3,240 6.7 -39.3°
Reaches altitude 10° 03:41:03 10° 47° (NE) 2,308 6.0 -38.8°
Maximum altitude 03:44:30 18° 90° (E) 1,800 5.5 -38.2°
Drops below altitude 10° 03:47:57 10° 133° (SE) 2,297 5.8 -37.6°
Sets 03:50:57 0° 152° (SSE) 3,218 6.4 -37.1°
